Regional Weather Roundup
Issued by NWS

Home | Current Version | Previous Version | Graphics & Text | Print | Product List | Glossary On
Versions: 1 2 3 4 5 6 7 8 9 10 11 12 13 14 15 16 17 18 19 20 21 22 23 24 25 26 27 28 29 30 31 32 33 34 35 36 37 38 39 40 41 42 43 44 45 46 47 48 49 50
000
ASUS43 KLSX 010259
RWRMO

WEATHER SUMMARY FOR MISSOURI
NATIONAL WEATHER SERVICE SPRINGFIELD MO
1000 PM CDT THU JUL 31 2014

NOTE: "FAIR" INDICATES FEW OR NO CLOUDS BELOW 12,000 FEET WITH NO
       SIGNIFICANT WEATHER AND/OR OBSTRUCTIONS TO VISIBILITY.
       CURRENT SKY AND/OR WEATHER CONDITIONS ARE NOT AVAILABLE FOR
       CHILLICOTHE AND FARMINGTON.

MOZ001>031-035>038-043-044-053-054-010400-
...NORTHERN AND WESTERN MISSOURI...

CITY           SKY/WX    TMP DP  RH WIND       PRES   REMARKS
KANSAS CTY INT MOCLDY    73  56  54 SE7       30.05S
KANSAS C DTWN  MOCLDY    75  57  53 E5        30.04R
LEE`S SUMMIT   MOCLDY    72  60  66 E6        30.06R
ST JOSEPH      MOCLDY    65  61  87 CALM      30.04R
CHILLICOTHE      N/A     67  60  78 CALM      30.06R
KIRKSVILLE     CLEAR     63  60  90 CALM      30.07R

$$
MOZ066>068-077>081-088>096-101>105-010400-
...SOUTHWEST MISSOURI...

CITY           SKY/WX    TMP DP  RH WIND       PRES   REMARKS
SPRINGFIELD    CLEAR     68  64  87 S6        30.07R
JOPLIN         CLEAR     70  67  90 SW3       30.07R

$$
MOZ032>034-039>042-045>050-055>058-069>072-010400-
...CENTRAL MISSOURI...

CITY           SKY/WX    TMP DP  RH WIND       PRES   REMARKS
COLUMBIA       CLEAR     69  58  67 NE7       30.06R
JEFFERSON CITY CLEAR     72  58  61 CALM      30.04R
ROLLA          CLOUDY    72  57  59 S5        30.05R
SEDALIA        PTCLDY    71  59  65 CALM      30.06S
OSAGE BEACH      N/A     68  57  68 N5        30.05R

$$
MOZ051-052-059>065-010400-
...EAST CENTRAL MISSOURI...

CITY           SKY/WX    TMP DP  RH WIND       PRES   REMARKS
ST LOUIS INTL  PTCLDY    76  60  57 NE3       30.07R
SPIRIT OF STL  CLEAR     69  61  75 SW3       30.05R
ST CHARLES     CLEAR     69  64  84 CALM      30.05R

$$
MOZ072>076-082>087-097>100-106>115-010400-
...SOUTH CENTRAL AND SOUTHEAST MISSOURI...

CITY           SKY/WX    TMP DP  RH WIND       PRES   REMARKS
CAPE GIRARDEAU CLEAR     69  64  84 N3        30.07R
FARMINGTON     PTCLDY    70  64  83 SE3       30.10R
POPLAR BLUFF   MOCLDY    66  62  87 CALM      30.06S
WEST PLAINS    MOCLDY    66  63  90 CALM      30.10R

$$


USA.gov is the U.S. government's official web portal to all federal, state and local government web resources and services.